Find Yaogan 31 hao 03 zu 02 xing

NORAD ID: 47693 Int'l Des: 2021-014 Owner: ZLZB Country: CN Constellation: yaogan operational
LEO

リアルタイム位置

3D地球を読み込み中...

Yaogan 31 hao 03 zu 02 xingについて

説明を読み込み中...

次回通過

Passes for default location (London). Set your location on the main map for personalized predictions.

高度履歴

Loading altitude history...

軌道要素

1 47693U 21014C 26105.95617998 -.00000038 00000-0 80546-4 0 9994
2 47693 63.4052 358.5881 0171992 0.7544 359.3709 13.45445064252302
Epoch: Apr 15, 2026 • Age: 5 hours

現在のステータス

高度 1163.7 km
速度 7.24 km/s
衛星直下点 -54.06°S, 38.88°W
打ち上げ日 Feb 24, 2021
運用期間 5.1 years
タイプ military

技術仕様

分類 Payload
質量 500.00 kg
乾燥質量 500.00 kg
総質量 500.00 kg
長さ 0.50 m
直径 0.50 m
スパン 1.00 m
形状 Box + 2 Pan
製造者 DFHZ
フェーズステータス In Orbit
所有者/国 ZLZB/CN

Most Searched